Location: Unspecified
(43.4680°N, 87.1740°E)
Time: 06:08:00
(UTC+00:00)

Cosmos 2227 Rocket - Pass Details

Date: 17 January 2020
Orbit: 840 x 843 km, 71.0° (Epoch: 24 February)

Event Time Altitude Azimuth Distance (km) Brightness Sun altitude
Exits shadow 21:47:16 20° 75° (ENE) 1,853 4.4 -41.8°
Drops below altitude 10° 21:49:57 10° 102° (ESE) 2,457 5.2 -41.3°
Sets 21:52:54 0° 116° (ESE) 3,388 5.9 -40.8°
